When you browse on this site, cookies collect data to enhance your experience and personalize the content and advertising you see.
Visit our Privacy Policy to learn more. By continuing to use the site, you agree to this use of cookies and data.
  • In Czech Republic
  • List of Countries
  • For 7 days
  • Water Temperature
  • Satellite Maps
  • Weather Map
  • Weather Widgets
  • user-avatar
    Login

    Hourly Weather Zacatecas

    Today, 25 March, Monday

    Time Temperature Precipitation Wind Pressure Humidity
    00:00 +15°C° 0 mm 2 mps 589 mmHg 22%
    01:00 +15°C° 0 mm 2 mps 589 mmHg 23%
    02:00 +14°C° 0 mm 2 mps 589 mmHg 25%
    03:00 +13°C° 0 mm 1 mps 588 mmHg 26%
    04:00 +13°C° 0 mm 1 mps 588 mmHg 28%
    05:00 +12°C° 0 mm 1 mps 588 mmHg 30%
    06:00 +14°C° 0 mm 1 mps 589 mmHg 27%
    07:00 +16°C° 0 mm 1 mps 590 mmHg 24%
    08:00 +20°C° 0 mm 1 mps 592 mmHg 21%
    09:00 +21°C° 0 mm 1 mps 592 mmHg 20%
    10:00 +23°C° 0 mm 1 mps 593 mmHg 18%
    11:00 +25°C° 0 mm 1 mps 593 mmHg 17%
    12:00 +26°C° 0 mm 1 mps 593 mmHg 15%
    13:00 +27°C° 0 mm 1 mps 592 mmHg 14%
    14:00 +28°C° 0 mm 1 mps 592 mmHg 12%
    15:00 +28°C° 0 mm 1 mps 592 mmHg 12%
    16:00 +28°C° 0 mm 2 mps 591 mmHg 12%
    17:00 +28°C° 0 mm 2 mps 591 mmHg 12%
    18:00 +26°C° 0 mm 2 mps 591 mmHg 13%
    19:00 +25°C° 0 mm 2 mps 591 mmHg 14%
    20:00 +24°C° 0 mm 2 mps 591 mmHg 15%
    21:00 +22°C° 0 mm 3 mps 591 mmHg 21%
    22:00 +21°C° 0 mm 3 mps 591 mmHg 27%
    23:00 +20°C° 0 mm 4 mps 591 mmHg 33%

    Tomorrow, 26 March, Tuesday

    Time Temperature Precipitation Wind Pressure Humidity
    00:00 +19°C° 0 mm 4 mps 591 mmHg 38%
    01:00 +18°C° 0 mm 3 mps 590 mmHg 42%
    02:00 +17°C° 0 mm 2 mps 589 mmHg 46%
    03:00 +16°C° 0 mm 2 mps 589 mmHg 47%
    04:00 +15°C° 0 mm 2 mps 589 mmHg 48%
    05:00 +15°C° 0 mm 2 mps 588 mmHg 50%
    06:00 +16°C° 0 mm 2 mps 590 mmHg 43%
    07:00 +17°C° 0 mm 3 mps 591 mmHg 36%
    08:00 +19°C° 0 mm 3 mps 592 mmHg 30%
    09:00 +21°C° 0 mm 3 mps 592 mmHg 26%
    10:00 +23°C° 0 mm 4 mps 593 mmHg 22%
    11:00 +25°C° 0 mm 4 mps 593 mmHg 18%
    12:00 +26°C° 0 mm 4 mps 593 mmHg 16%
    13:00 +27°C° 0 mm 4 mps 592 mmHg 15%
    14:00 +28°C° 0 mm 5 mps 592 mmHg 14%
    15:00 +27°C° 0 mm 5 mps 592 mmHg 15%
    16:00 +27°C° 0 mm 5 mps 591 mmHg 15%
    17:00 +26°C° 0 mm 5 mps 590 mmHg 16%
    18:00 +23°C° 0 mm 6 mps 590 mmHg 22%
    19:00 +21°C° 0 mm 8 mps 590 mmHg 27%
    20:00 +18°C° 0 mm 9 mps 590 mmHg 33%
    21:00 +17°C° 0 mm 7 mps 590 mmHg 39%
    22:00 +16°C° 0 mm 6 mps 590 mmHg 44%
    23:00 +14°C° 0 mm 4 mps 590 mmHg 50%

    Day after tomorrow, 27 March, Wednesday

    Time Temperature Precipitation Wind Pressure Humidity
    00:00 +14°C° 0 mm 3 mps 590 mmHg 50%
    01:00 +13°C° 0 mm 3 mps 590 mmHg 51%
    02:00 +14°C° 0 mm 2 mps 589 mmHg 52%
    03:00 +13°C° 0 mm 2 mps 589 mmHg 52%
    04:00 +13°C° 0 mm 2 mps 589 mmHg 53%
    05:00 +12°C° 0 mm 1 mps 589 mmHg 54%
    06:00 +14°C° 0 mm 1 mps 590 mmHg 48%
    07:00 +15°C° 0 mm 2 mps 591 mmHg 42%
    08:00 +17°C° 0 mm 2 mps 592 mmHg 36%
    09:00 +19°C° 0 mm 2 mps 593 mmHg 30%
    10:00 +22°C° 0 mm 3 mps 593 mmHg 24%
    11:00 +25°C° 0 mm 3 mps 594 mmHg 18%
    12:00 +26°C° 0 mm 3 mps 593 mmHg 17%
    13:00 +27°C° 0 mm 3 mps 593 mmHg 16%
    14:00 +28°C° 0 mm 3 mps 592 mmHg 15%
    15:00 +27°C° 0 mm 4 mps 592 mmHg 15%
    16:00 +27°C° 0 mm 4 mps 592 mmHg 16%
    17:00 +27°C° 0 mm 4 mps 591 mmHg 16%
    18:00 +26°C° 0 mm 4 mps 591 mmHg 19%
    19:00 +25°C° 0 mm 4 mps 592 mmHg 21%
    20:00 +24°C° 0 mm 3 mps 592 mmHg 23%
    21:00 +21°C° 0 mm 3 mps 592 mmHg 28%
    22:00 +20°C° 0 mm 3 mps 592 mmHg 33%
    23:00 +18°C° 0 mm 3 mps 591 mmHg 38%

    28 March, Thursday

    Time Temperature Precipitation Wind Pressure Humidity
    00:00 +17°C° 0 mm 3 mps 591 mmHg 40%
    01:00 +17°C° 0 mm 2 mps 590 mmHg 43%
    02:00 +16°C° 0 mm 2 mps 590 mmHg 45%
    03:00 +15°C° 0 mm 2 mps 590 mmHg 46%
    04:00 +15°C° 0 mm 2 mps 589 mmHg 46%
    05:00 +15°C° 0 mm 2 mps 589 mmHg 47%
    06:00 +17°C° 0 mm 2 mps 591 mmHg 42%
    07:00 +18°C° 0 mm 2 mps 592 mmHg 37%
    08:00 +20°C° 0 mm 2 mps 593 mmHg 33%
    09:00 +23°C° 0 mm 2 mps 593 mmHg 29%
    10:00 +24°C° 0 mm 3 mps 593 mmHg 26%
    11:00 +26°C° 0 mm 4 mps 594 mmHg 23%
    12:00 +27°C° 0 mm 4 mps 593 mmHg 21%
    13:00 +28°C° 0 mm 5 mps 593 mmHg 19%
    14:00 +29°C° 0 mm 5 mps 592 mmHg 16%
    15:00 +28°C° 0 mm 5 mps 592 mmHg 16%
    16:00 +28°C° 0 mm 6 mps 592 mmHg 16%
    17:00 +28°C° 0 mm 6 mps 591 mmHg 16%
    18:00 +26°C° 0 mm 6 mps 591 mmHg 18%
    19:00 +23°C° 0 mm 6 mps 591 mmHg 21%
    20:00 +21°C° 0 mm 7 mps 590 mmHg 24%
    21:00 +20°C° 0 mm 6 mps 590 mmHg 26%
    22:00 +19°C° 0 mm 5 mps 590 mmHg 27%
    23:00 +18°C° 0 mm 4 mps 590 mmHg 29%

    29 March, Friday

    Time Temperature Precipitation Wind Pressure Humidity
    00:00 +17°C° 0 mm 3 mps 589 mmHg 31%
    01:00 +16°C° 0 mm 2 mps 589 mmHg 33%
    02:00 +15°C° 0 mm 2 mps 588 mmHg 35%
    03:00 +14°C° 0 mm 1 mps 588 mmHg 37%
    04:00 +13°C° 0 mm 1 mps 588 mmHg 39%
    05:00 +13°C° 0 mm 1 mps 587 mmHg 41%
    06:00 +15°C° 0 mm 1 mps 589 mmHg 36%
    07:00 +17°C° 0 mm 2 mps 590 mmHg 30%
    08:00 +19°C° 0 mm 2 mps 591 mmHg 25%
    09:00 +21°C° 0 mm 2 mps 591 mmHg 20%
    10:00 +24°C° 0 mm 3 mps 592 mmHg 16%
    11:00 +26°C° 0 mm 3 mps 592 mmHg 12%
    12:00 +27°C° 0 mm 4 mps 592 mmHg 11%
    13:00 +28°C° 0 mm 5 mps 591 mmHg 10%
    14:00 +29°C° 0 mm 5 mps 591 mmHg 10%
    15:00 +28°C° 0 mm 6 mps 591 mmHg 10%
    16:00 +28°C° 0 mm 6 mps 590 mmHg 9%
    17:00 +28°C° 0 mm 6 mps 590 mmHg 9%
    18:00 +24°C° 0 mm 6 mps 590 mmHg 11%
    19:00 +22°C° 0 mm 5 mps 589 mmHg 13%
    20:00 +20°C° 0 mm 5 mps 589 mmHg 15%
    21:00 +19°C° 0 mm 4 mps 588 mmHg 16%
    22:00 +18°C° 0 mm 3 mps 588 mmHg 17%
    23:00 +17°C° 0 mm 3 mps 588 mmHg 19%

    30 March, Saturday

    Time Temperature Precipitation Wind Pressure Humidity
    00:00 +16°C° 0 mm 2 mps 587 mmHg 20%
    01:00 +15°C° 0 mm 2 mps 587 mmHg 21%
    02:00 +15°C° 0 mm 2 mps 587 mmHg 22%
    03:00 +14°C° 0 mm 2 mps 587 mmHg 22%
    04:00 +14°C° 0 mm 2 mps 586 mmHg 23%
    05:00 +14°C° 0 mm 2 mps 586 mmHg 24%
    06:00 +16°C° 0 mm 2 mps 588 mmHg 22%
    07:00 +17°C° 0 mm 2 mps 589 mmHg 20%
    08:00 +20°C° 0 mm 1 mps 590 mmHg 18%
    09:00 +21°C° 0 mm 1 mps 590 mmHg 17%
    10:00 +23°C° 0 mm 1 mps 590 mmHg 15%
    11:00 +24°C° 0 mm 1 mps 590 mmHg 14%
    12:00 +25°C° 0 mm 2 mps 590 mmHg 14%
    13:00 +25°C° 0 mm 3 mps 589 mmHg 13%
    14:00 +25°C° 0 mm 4 mps 589 mmHg 13%
    15:00 +25°C° 0 mm 5 mps 589 mmHg 14%
    16:00 +23°C° 0 mm 5 mps 589 mmHg 15%
    17:00 +23°C° 0 mm 6 mps 589 mmHg 15%
    18:00 +22°C° 0 mm 5 mps 589 mmHg 16%
    19:00 +21°C° 0 mm 4 mps 589 mmHg 16%
    20:00 +20°C° 0 mm 3 mps 589 mmHg 17%
    21:00 +19°C° 0 mm 2 mps 589 mmHg 21%
    22:00 +19°C° 0 mm 2 mps 589 mmHg 24%
    23:00 +19°C° 0 mm 1 mps 589 mmHg 28%
    Show more